Simultaneous Nadir Overpasses (SNOs) Predictions

Prediction of SNOs between AQUA and METOP-C Satellite Orbit:

Table of predicted SNOs for the next 14.0 days since TLE Epoch: 7/9/2022
Index Date (AQUA) Time (AQUA) Lat,Lon (AQUA) SZA (AQUA ) Date (METOP-C) Time (METOP-C) Lat,Lon (METOP-C) SZA (METOP-C ) Distance(km) Time Diff (sec)
1 07/11/2022 06:03:35 73.92, 83.88 51.85 07/11/2022 06:02:46 73.95, 83.88 51.89 3.57 49
2 07/11/2022 06:53:02 -74.02,-108.71 128.03 07/11/2022 06:53:27 -74.03,-108.60 128.03 3.51 25
3 07/14/2022 00:47:46 -73.83, -16.97 127.85 07/14/2022 00:46:33 -73.76, -17.52 127.89 18.91 73
4 07/14/2022 01:37:16 73.98, 150.34 52.32 07/14/2022 01:37:08 73.95, 150.30 52.30 3.05 8
5 07/14/2022 02:26:42 -74.03, -42.13 127.62 07/14/2022 02:27:49 -74.03, -42.19 127.63 2.01 67
6 07/16/2022 20:21:27 -73.96, 49.34 127.26 07/16/2022 20:20:50 -73.95, 49.36 127.26 0.87 37
7 07/16/2022 21:10:55 74.01,-143.13 52.80 07/16/2022 21:11:28 74.00,-143.18 52.80 1.57 33
8 07/19/2022 15:05:40 73.91, -51.59 53.18 07/19/2022 15:04:30 73.92, -51.63 53.21 2.13 70
9 07/19/2022 15:55:07 -74.00, 115.85 126.72 07/19/2022 15:55:11 -74.00, 115.87 126.72 0.83 4
10 07/19/2022 16:44:35 74.05, -76.63 53.35 07/19/2022 16:45:48 74.10, -76.54 53.38 5.97 73
11 07/22/2022 10:39:20 73.97, 14.87 53.79 07/22/2022 10:38:51 73.97, 14.88 53.79 0.84 29
12 07/22/2022 11:28:46 -74.01,-177.57 126.17 07/22/2022 11:29:32 -74.03,-177.63 126.15 3.32 46



Historial Predications of SNOs between AQUA and METOP-C
